TimeEST,TemperatureF,Dew PointF,Humidity,Sea Level PressureIn,VisibilityMPH,Wind Direction,Wind SpeedMPH,Gust SpeedMPH,PrecipitationIn,Events,Conditions,WindDirDegrees,DateUTC
12:15 AM,39.7,38.3,95,29.62,7.0,West,8.1,-,N/A,,Overcast,270,2012-12-17 05:15:00
12:34 AM,39.6,38.1,95,29.62,5.0,West,6.9,-,N/A,,Overcast,270,2012-12-17 05:34:00
1:15 AM,39.4,37.6,93,29.63,10.0,West,5.8,-,N/A,,Overcast,260,2012-12-17 06:15:00
1:34 AM,39.2,37.4,93,29.63,4.0,West,6.9,-,N/A,,Overcast,260,2012-12-17 06:34:00
1:55 AM,39.2,37.2,93,29.63,7.0,West,5.8,-,N/A,,Overcast,260,2012-12-17 06:55:00
2:14 AM,39.0,37.2,93,29.63,4.0,West,5.8,-,N/A,,Overcast,270,2012-12-17 07:14:00
2:34 AM,38.8,37.0,93,29.63,7.0,West,5.8,-,N/A,,Overcast,260,2012-12-17 07:34:00
2:55 AM,38.8,36.7,92,29.64,10.0,WSW,5.8,-,N/A,,Overcast,250,2012-12-17 07:55:00
3:14 AM,38.8,36.5,91,29.65,10.0,WSW,5.8,-,N/A,,Overcast,250,2012-12-17 08:14:00
3:34 AM,38.8,36.5,91,29.65,10.0,WSW,4.6,-,N/A,,Overcast,250,2012-12-17 08:34:00
4:14 AM,38.8,36.0,89,29.65,10.0,West,5.8,-,N/A,,Overcast,260,2012-12-17 09:14:00
4:34 AM,38.8,36.0,89,29.64,10.0,West,3.5,-,N/A,,Overcast,260,2012-12-17 09:34:00
4:54 AM,38.7,36.0,90,29.64,10.0,West,4.6,-,N/A,,Overcast,260,2012-12-17 09:54:00
5:14 AM,38.5,36.0,91,29.64,10.0,West,3.5,-,N/A,,Overcast,260,2012-12-17 10:14:00
5:35 AM,38.5,36.0,91,29.64,10.0,WSW,4.6,-,N/A,,Overcast,240,2012-12-17 10:35:00
5:55 AM,38.5,36.0,91,29.65,10.0,WSW,6.9,-,N/A,,Overcast,240,2012-12-17 10:55:00
6:14 AM,38.5,36.0,91,29.66,10.0,WSW,3.5,-,N/A,,Overcast,240,2012-12-17 11:14:00
6:35 AM,38.3,35.8,91,29.66,10.0,WSW,4.6,-,N/A,,Overcast,240,2012-12-17 11:35:00
6:54 AM,38.3,35.8,91,29.67,10.0,WSW,5.8,-,N/A,,Overcast,250,2012-12-17 11:54:00
7:14 AM,38.3,35.6,90,29.68,10.0,WSW,4.6,-,N/A,,Overcast,250,2012-12-17 12:14:00
7:35 AM,38.3,35.6,90,29.68,10.0,WSW,6.9,-,N/A,,Overcast,240,2012-12-17 12:35:00
7:54 AM,38.3,35.4,89,29.69,10.0,West,4.6,-,N/A,,Overcast,260,2012-12-17 12:54:00
8:14 AM,37.9,35.2,90,29.69,10.0,West,4.6,-,N/A,,Overcast,270,2012-12-17 13:14:00
8:35 AM,37.8,35.2,91,29.69,10.0,Calm,Calm,-,N/A,,Overcast,0,2012-12-17 13:35:00
8:54 AM,37.8,35.2,91,29.68,10.0,Calm,Calm,-,N/A,,Overcast,0,2012-12-17 13:54:00
9:14 AM,37.9,35.6,91,29.68,10.0,Calm,Calm,-,N/A,,Overcast,0,2012-12-17 14:14:00
9:35 AM,37.9,35.6,91,29.68,10.0,Calm,Calm,-,N/A,,Overcast,0,2012-12-17 14:35:00
9:54 AM,38.5,35.6,89,29.67,10.0,West,4.6,-,N/A,,Overcast,280,2012-12-17 14:54:00
10:15 AM,38.7,34.9,86,29.68,10.0,West,4.6,-,N/A,,Overcast,280,2012-12-17 15:15:00
10:34 AM,38.5,34.5,86,29.68,10.0,WNW,8.1,-,N/A,,Overcast,290,2012-12-17 15:34:00
10:54 AM,38.3,34.5,86,29.67,10.0,WNW,5.8,-,N/A,,Overcast,290,2012-12-17 15:54:00
11:14 AM,38.3,33.8,84,29.67,10.0,WNW,4.6,-,N/A,,Overcast,300,2012-12-17 16:14:00
11:34 AM,38.3,33.8,84,29.67,10.0,West,5.8,-,N/A,,Overcast,270,2012-12-17 16:34:00
11:55 AM,38.7,33.8,83,29.66,10.0,WNW,5.8,-,N/A,,Overcast,290,2012-12-17 16:55:00
12:14 PM,39.2,33.8,81,29.65,10.0,NW,4.6,-,N/A,,Overcast,320,2012-12-17 17:14:00
12:35 PM,39.2,33.1,79,29.64,10.0,NW,5.8,-,N/A,,Overcast,310,2012-12-17 17:35:00
12:54 PM,39.2,31.8,75,29.63,10.0,NW,4.6,-,N/A,,Overcast,320,2012-12-17 17:54:00
1:14 PM,39.6,30.2,69,29.63,10.0,NW,4.6,-,N/A,,Overcast,320,2012-12-17 18:14:00
1:34 PM,39.2,30.0,70,29.63,10.0,WNW,6.9,-,N/A,,Overcast,300,2012-12-17 18:34:00
1:54 PM,39.2,30.2,70,29.63,10.0,West,4.6,-,N/A,,Overcast,280,2012-12-17 18:54:00
2:15 PM,39.2,30.9,72,29.63,10.0,WNW,4.6,-,N/A,,Overcast,300,2012-12-17 19:15:00
2:34 PM,38.8,30.0,71,29.62,10.0,NW,4.6,-,N/A,,Overcast,310,2012-12-17 19:34:00
2:54 PM,39.2,30.4,71,29.62,10.0,WNW,4.6,-,N/A,,Overcast,300,2012-12-17 19:54:00
3:14 PM,39.2,30.6,71,29.63,10.0,West,3.5,-,N/A,,Overcast,280,2012-12-17 20:14:00
3:34 PM,39.2,30.7,72,29.63,10.0,WNW,4.6,-,N/A,,Overcast,300,2012-12-17 20:34:00
3:54 PM,38.7,30.4,72,29.63,10.0,WNW,4.6,-,N/A,,Overcast,300,2012-12-17 20:54:00
4:15 PM,38.5,30.6,73,29.64,10.0,NW,3.5,-,N/A,,Overcast,310,2012-12-17 21:15:00
4:34 PM,38.5,31.1,75,29.64,10.0,Calm,Calm,-,N/A,,Overcast,0,2012-12-17 21:34:00
4:55 PM,38.3,31.3,76,29.64,10.0,Calm,Calm,-,N/A,,Overcast,0,2012-12-17 21:55:00
7:34 PM,34.9,30.9,85,29.64,10.0,Calm,Calm,-,N/A,,Scattered Clouds,0,2012-12-18 00:34:00
7:55 PM,34.3,30.2,85,29.64,10.0,Calm,Calm,-,N/A,,Scattered Clouds,0,2012-12-18 00:55:00
8:14 PM,32.2,30.7,94,29.64,7.0,Calm,Calm,-,N/A,,Mostly Cloudy,0,2012-12-18 01:14:00
8:34 PM,32.0,30.9,96,29.63,5.0,NW,3.5,-,N/A,,Mostly Cloudy,310,2012-12-18 01:34:00
8:55 PM,31.6,30.6,96,29.63,5.0,WNW,3.5,-,N/A,,Clear,300,2012-12-18 01:55:00
9:14 PM,31.8,30.9,96,29.63,7.0,WNW,5.8,-,N/A,,Scattered Clouds,290,2012-12-18 02:14:00
9:34 PM,32.0,31.1,96,29.63,7.0,West,3.5,-,N/A,,Mostly Cloudy,280,2012-12-18 02:34:00
9:55 PM,31.6,30.6,96,29.63,5.0,Calm,Calm,-,N/A,,Mostly Cloudy,0,2012-12-18 02:55:00
10:14 PM,32.0,30.9,96,29.63,7.0,Calm,Calm,-,N/A,,Scattered Clouds,0,2012-12-18 03:14:00
10:34 PM,31.5,30.2,95,29.64,7.0,West,3.5,-,N/A,,Clear,280,2012-12-18 03:34:00
10:55 PM,31.1,30.0,96,29.64,7.0,Calm,Calm,-,N/A,,Mostly Cloudy,0,2012-12-18 03:55:00
11:14 PM,32.0,30.6,94,29.65,7.0,Calm,Calm,-,N/A,,Overcast,0,2012-12-18 04:14:00
11:34 PM,32.0,30.9,96,29.66,7.0,Calm,Calm,-,N/A,,Overcast,0,2012-12-18 04:34:00
11:55 PM,32.2,31.1,96,29.66,5.0,Calm,Calm,-,N/A,,Overcast,0,2012-12-18 04:55:00